TimeEDT,TemperatureF,Dew PointF,Humidity,Sea Level PressureIn,VisibilityMPH,Wind Direction,Wind SpeedMPH,Gust SpeedMPH,PrecipitationIn,Events,Conditions,WindDirDegrees,DateUTC
12:05 AM,57.2,55.4,94,29.74,5.0,Calm,Calm,-,N/A,,Overcast,0,2011-10-13 04:05:00
12:31 AM,57.2,55.4,94,29.74,5.0,Calm,Calm,-,N/A,,Overcast,0,2011-10-13 04:31:00
1:53 AM,55.9,55.0,97,29.71,4.0,Calm,Calm,-,N/A,,Overcast,0,2011-10-13 05:53:00
2:53 AM,55.9,54.0,93,29.70,3.0,Calm,Calm,-,N/A,,Overcast,0,2011-10-13 06:53:00
3:01 AM,53.6,53.6,100,29.70,2.5,Calm,Calm,-,N/A,,Overcast,0,2011-10-13 07:01:00
3:13 AM,55.4,53.6,94,29.70,3.0,Calm,Calm,-,N/A,,Overcast,0,2011-10-13 07:13:00
3:28 AM,55.4,55.4,100,29.70,3.0,Calm,Calm,-,N/A,,Overcast,0,2011-10-13 07:28:00
3:51 AM,55.4,53.6,94,29.69,3.0,Calm,Calm,-,N/A,,Overcast,0,2011-10-13 07:51:00
3:53 AM,55.0,54.0,96,29.69,2.5,Calm,Calm,-,N/A,,Overcast,0,2011-10-13 07:53:00
4:10 AM,55.4,55.4,100,29.69,3.0,Calm,Calm,-,N/A,,Overcast,0,2011-10-13 08:10:00
4:26 AM,55.4,55.4,100,29.69,3.0,Calm,Calm,-,N/A,,Overcast,0,2011-10-13 08:26:00
4:34 AM,55.4,55.4,100,29.69,3.0,West,3.5,-,N/A,,Overcast,270,2011-10-13 08:34:00
4:53 AM,55.9,55.0,97,29.68,3.0,Calm,Calm,-,N/A,,Overcast,0,2011-10-13 08:53:00
5:03 AM,55.4,55.4,100,29.67,3.0,Calm,Calm,-,N/A,,Overcast,0,2011-10-13 09:03:00
5:09 AM,55.4,53.6,94,29.67,3.0,NNW,3.5,-,N/A,,Mostly Cloudy,330,2011-10-13 09:09:00
5:36 AM,51.8,51.8,100,29.67,2.0,South,3.5,-,N/A,,Mostly Cloudy,190,2011-10-13 09:36:00
5:45 AM,51.8,51.8,100,29.68,1.8,SSW,3.5,-,N/A,,Mostly Cloudy,210,2011-10-13 09:45:00
5:53 AM,54.0,53.1,97,29.68,2.0,South,3.5,-,N/A,,Overcast,190,2011-10-13 09:53:00
6:50 AM,55.4,53.6,94,29.67,1.2,Calm,Calm,-,N/A,,Mostly Cloudy,0,2011-10-13 10:50:00
6:53 AM,54.0,53.1,97,29.67,0.5,Calm,Calm,-,N/A,Fog,Fog,0,2011-10-13 10:53:00
7:03 AM,53.6,53.6,100,29.67,1.8,Calm,Calm,-,N/A,,Mostly Cloudy,0,2011-10-13 11:03:00
7:20 AM,55.4,53.6,94,29.67,2.0,SE,3.5,-,N/A,,Overcast,140,2011-10-13 11:20:00
7:53 AM,55.9,55.0,97,29.66,2.0,Calm,Calm,-,N/A,,Overcast,0,2011-10-13 11:53:00
8:01 AM,55.4,55.4,100,29.66,1.5,Calm,Calm,-,N/A,,Overcast,0,2011-10-13 12:01:00
8:33 AM,55.4,53.6,94,29.66,2.0,Calm,Calm,-,N/A,,Mostly Cloudy,0,2011-10-13 12:33:00
8:53 AM,55.9,55.0,97,29.65,1.8,Calm,Calm,-,N/A,,Scattered Clouds,0,2011-10-13 12:53:00
9:04 AM,55.4,55.4,100,29.65,1.2,ESE,3.5,-,N/A,,Mostly Cloudy,110,2011-10-13 13:04:00
9:29 AM,55.4,55.4,100,29.65,2.0,SSE,4.6,-,N/A,,Overcast,160,2011-10-13 13:29:00
9:51 AM,57.2,55.4,94,29.65,3.0,South,4.6,-,N/A,,Overcast,170,2011-10-13 13:51:00
9:53 AM,57.0,55.0,93,29.65,3.0,South,5.8,-,N/A,,Overcast,180,2011-10-13 13:53:00
10:11 AM,57.2,55.4,94,29.65,3.0,SSE,6.9,-,N/A,,Overcast,160,2011-10-13 14:11:00
10:53 AM,57.9,55.0,90,29.64,4.0,South,3.5,-,N/A,,Overcast,190,2011-10-13 14:53:00
11:53 AM,59.0,55.0,87,29.62,4.0,South,3.5,-,N/A,,Overcast,180,2011-10-13 15:53:00
12:11 PM,60.8,55.4,82,29.62,5.0,Calm,Calm,-,N/A,,Haze,0,2011-10-13 16:11:00
12:39 PM,62.6,55.4,77,29.61,6.0,SSE,3.5,-,N/A,,Haze,160,2011-10-13 16:39:00
12:53 PM,62.1,55.9,80,29.61,7.0,ESE,4.6,-,N/A,,Mostly Cloudy,110,2011-10-13 16:53:00
1:36 PM,64.4,55.4,73,29.58,10.0,ESE,5.8,-,N/A,,Scattered Clouds,120,2011-10-13 17:36:00
1:53 PM,64.0,55.0,73,29.57,10.0,Variable,4.6,-,N/A,,Scattered Clouds,0,2011-10-13 17:53:00
2:53 PM,64.9,55.0,70,29.55,10.0,SSE,4.6,-,N/A,,Overcast,150,2011-10-13 18:53:00
4:02 PM,66.2,55.4,68,29.53,10.0,SE,5.8,-,N/A,,Mostly Cloudy,130,2011-10-13 20:02:00
4:41 PM,64.4,55.4,73,29.51,10.0,SE,9.2,-,N/A,,Overcast,140,2011-10-13 20:41:00
4:53 PM,64.9,55.9,73,29.51,10.0,SE,9.2,-,N/A,,Overcast,130,2011-10-13 20:53:00
5:04 PM,64.4,55.4,73,29.51,10.0,SE,8.1,-,N/A,,Overcast,140,2011-10-13 21:04:00
5:20 PM,64.4,55.4,73,29.50,10.0,ESE,6.9,-,N/A,,Overcast,110,2011-10-13 21:20:00
5:53 PM,63.0,55.9,78,29.49,10.0,ESE,6.9,-,N/A,,Overcast,120,2011-10-13 21:53:00
6:35 PM,62.6,55.4,77,29.49,9.0,ESE,4.6,-,N/A,,Mostly Cloudy,110,2011-10-13 22:35:00
6:53 PM,62.1,55.9,80,29.49,9.0,SE,6.9,-,N/A,,Overcast,130,2011-10-13 22:53:00
7:03 PM,62.6,55.4,77,29.48,10.0,ESE,5.8,-,N/A,,Overcast,120,2011-10-13 23:03:00
8:00 PM,60.8,55.4,82,29.47,10.0,ESE,3.5,-,N/A,,Overcast,120,2011-10-14 00:00:00
8:53 PM,61.0,55.0,81,29.46,10.0,SE,8.1,-,N/A,,Overcast,130,2011-10-14 00:53:00
9:23 PM,59.0,55.4,88,29.46,6.0,SE,5.8,-,0.03,Rain,Light Rain,130,2011-10-14 01:23:00
9:53 PM,59.0,57.0,93,29.45,7.0,SE,5.8,-,0.03,,Overcast,130,2011-10-14 01:53:00
10:38 PM,57.2,57.2,100,29.44,3.0,South,3.5,-,0.05,Rain,Rain,170,2011-10-14 02:38:00
10:48 PM,57.2,57.2,100,29.43,2.5,Calm,Calm,-,0.08,Rain,Rain,0,2011-10-14 02:48:00
10:53 PM,57.9,57.0,97,29.43,2.0,SE,3.5,-,0.10,Rain,Rain,140,2011-10-14 02:53:00
11:18 PM,59.0,57.2,94,29.42,1.5,SSE,6.9,-,0.17,Rain,Heavy Rain,150,2011-10-14 03:18:00
11:40 PM,59.0,57.2,94,29.41,3.0,South,8.1,17.3,0.32,Rain,Light Rain,170,2011-10-14 03:40:00
11:53 PM,59.0,57.0,93,29.40,7.0,South,4.6,-,0.32,,Overcast,180,2011-10-14 03:53:00